{"data":{"norad_id":54824,"intl_designator":"2022-177E","name":"STARLINK-4643","alt_names":[],"object_type":"PAYLOAD","status":"ACTIVE","operator":null,"country":"US","launch_date":"2022-12-28","launch_site_code":"AFETR","launch_vehicle":null,"mission":null,"orbit_class":"UNKNOWN","rcs_meters":null,"size_class":null,"mass_kg":null,"dimensions":null,"purposes":["comms"],"wikipedia_slug":null,"has_3d_model":false,"image_url":null,"decayed_at":null,"tle_current":{"epoch":"2026-09-20T22:13:46.923456Z","epoch_age_seconds":56519,"freshness":"FRESH","line1":"1 54824U 22177E   26263.92623754  .00001023  00000+0  46701-4 0  9996","line2":"2 54824  43.0028 113.3507 0001522 269.9351  90.1326 15.27579535206780","mean_motion":15.27579535,"eccentricity":0.0001522,"inclination_deg":43.0028,"raan_deg":113.3507,"arg_perigee_deg":269.9351,"mean_anomaly_deg":90.1326,"bstar":4.6701e-5,"rev_number":20678,"period_min":94.266777408746,"perigee_km":482.00621568155,"apogee_km":484.09476115303,"semimajor_km":6861.1874884173,"source":"CELESTRAK","updated_at":"2026-09-21T09:00:33.133289Z"}}}